{"data":{"norad_id":53056,"epoch":"2026-09-19T21:59:30.722784Z","epoch_age_seconds":119869,"freshness":"FRESH","line1":"1 53056U 22077P   26262.91632781 -.00003231  00000+0 -97797-4 0  9995","line2":"2 53056  97.2828  78.7064 0001966 104.8813 255.2648 15.33445330230262","mean_motion":15.3344533,"eccentricity":0.0001966,"inclination_deg":97.2828,"raan_deg":78.7064,"arg_perigee_deg":104.8813,"mean_anomaly_deg":255.2648,"bstar":-9.7797e-5,"rev_number":23026,"period_min":93.906184448062,"perigee_km":464.19672530121,"apogee_km":466.88765995975,"semimajor_km":6843.6791926305,"source":"CELESTRAK","updated_at":"2026-09-20T09:00:40.152457Z"}}